This is the latest recevied weather packets stored in our database for station/object YF9UAG-15. If no packets are shown the sender has not sent any weather packets the latest 10 day(s).
| Time | Temp. | Humidity | Pressure | Rain* | Wind** | Luminosity | Snow |
|---|---|---|---|---|---|---|---|
| 1777643478 | 29.44° C | 100% | 1007.8 hPa | - | - | - | - |
| 1777643357 | 30° C | 100% | 1007.8 hPa | - | - | - | - |
| 1777643236 | 30° C | 100% | 1007.8 hPa | - | - | - | - |
| 1777643115 | 30° C | 100% | 1007.7 hPa | - | - | - | - |
| 1777642994 | 30.56° C | 100% | 1007.8 hPa | - | - | - | - |
| 1777642874 | 30° C | 100% | 1007.6 hPa | - | - | - | - |
| 1777642753 | 30.56° C | 100% | 1007.7 hPa | - | - | - | - |
| 1777642632 | 30.56° C | 100% | 1007.6 hPa | - | - | - | - |
| 1777642511 | 30.56° C | 100% | 1007.7 hPa | - | - | - | - |
| 1777642390 | 29.44° C | 100% | 1007.7 hPa | - | - | - | - |
| 1777642269 | 28.89° C | 100% | 1007.7 hPa | - | - | - | - |
| 1777642148 | 30.56° C | 100% | 1007.7 hPa | - | - | - | - |
| 1777642027 | 30° C | 100% | 1007.6 hPa | - | - | - | - |
| 1777641906 | 30.56° C | 100% | 1007.6 hPa | - | - | - | - |
| 1777641785 | 30.56° C | 100% | 1007.7 hPa | - | - | - | - |
| 1777641664 | 30.56° C | 100% | 1007.7 hPa | - | - | - | - |
| 1777641543 | 30° C | 100% | 1007.8 hPa | - | - | - | - |
| 1777641422 | 29.44° C | 100% | 1007.8 hPa | - | - | - | - |
| 1777641301 | 30° C | 100% | 1007.7 hPa | - | - | - | - |
| 1777641180 | 30.56° C | 100% | 1007.7 hPa | - | - | - | - |
| 1777641059 | 30° C | 100% | 1007.6 hPa | - | - | - | - |
| 1777640938 | 30.56° C | 100% | 1007.5 hPa | - | - | - | - |
| 1777640817 | 30.56° C | 100% | 1007.6 hPa | - | - | - | - |
| 1777640697 | 30° C | 100% | 1007.6 hPa | - | - | - | - |
| 1777640576 | 29.44° C | 100% | 1007.6 hPa | - | - | - | - |
* Rain since midnight (hover to see other rain measurements)
** Current wind speed in m/s (hover to see current wind gust speed)